Weather History for CYHM - November, 2012

Change the Weather History Date:

Sunday, November 18, 2012

  Actual Average Record
Temperature  
Mean Temperature 40 °F -  
Max Temperature 48 °F 38 °F 57 °F (2001)
Min Temperature 31 °F 25 °F 12 °F (2014)
Degree Days  
Heating Degree Days 26    
Moisture  
Dew Point 37 °F    
Average Humidity 92    
Maximum Humidity 100    
Minimum Humidity 53    
Precipitation  
Precipitation 0.00 in 0.11 in - ()
Sea Level Pressure  
Sea Level Pressure 30.58 in    
Wind  
Wind Speed 8 mph ()    
Max Wind Speed 15 mph    
Max Gust Speed -    
Visibility 4.8 miles    
Events Fog    
Averages and records for this station are not official NWS values.
T = Trace of Precipitation, MM = Missing Value Source: Averaged Metar Reports

Daily Weather History Graph

Daily Weather History Graph

Search for Another Location

Airport or City:

Trip Planner

Search our weather history database for the weather conditions in past years. The results will help you decide how hot, cold, wet, or windy it might be!

Date:

Astronomy

Nov. 18, 2012 Rise Set
Actual Time 7:16 AM EST 4:52 PM EST
Civil Twilight 6:46 AM EST 5:23 PM EST
Nautical Twilight 6:11 AM EST 5:58 PM EST
Astronomical Twilight 5:37 AM EST 6:32 PM EST
Moon 11:41 AM EST (11/18) 10:12 PM EST (11/18)
Length of Visible Light 10h 37m
Length of Day
9h 35m
Waxing Crescent, 30% of the Moon is Illuminated
Nov 18
Waxing Crescent
Nov 20
First Quarter
Nov 28
Full
Dec 6
Last Quarter
Dec 13
New

Hourly Weather History & Observations

Time (EST) Temp. Windchill Dew Point Humidity Pressure Visibility Wind Dir Wind Speed Gust Speed Precip Events Conditions
12:00 AM 35.6 °F 30.7 °F 35.6 °F 100% 30.63 in 1.0 mi ENE 5.8 mph - N/A   Clear
1:00 AM 35 °F - 35 °F 100% 30.62 in 1 mi ENE 5.8 mph - -   Mist
1:00 AM 35.6 °F 29.9 °F 35.6 °F 100% 30.62 in 0.8 mi NE 6.9 mph - N/A   Scattered Clouds
1:29 AM 35.6 °F 29.2 °F 35.6 °F 100% 30.61 in 3.0 mi NE 8.1 mph - N/A   Partly Cloudy
2:00 AM 33.8 °F 27.7 °F 33.8 °F 100% 30.60 in 3.0 mi NNE 6.9 mph - N/A   Partly Cloudy
2:07 AM 33.8 °F 26.4 °F 33.8 °F 100% 30.60 in 0.2 mi NNE 9.2 mph - N/A Fog Fog
2:29 AM 33.8 °F 27.0 °F 33.8 °F 100% 30.61 in 0.0 mi NNE 8.1 mph - N/A Fog Fog
3:00 AM 33.8 °F 29.6 °F 33.8 °F 100% 30.61 in 0.0 mi NNE 4.6 mph - N/A Fog Fog
4:00 AM 33.8 °F 27.7 °F 33.8 °F 100% 30.60 in 0.0 mi NE 6.9 mph - N/A Fog Fog
5:00 AM 37.4 °F 30.8 °F 37.4 °F 100% 30.61 in 0.0 mi NE 9.2 mph - N/A Fog Fog
6:00 AM 37.4 °F 30.8 °F 37.4 °F 100% 30.61 in 0.0 mi NE 9.2 mph - N/A Fog Fog
7:00 AM 38 °F - 38 °F 100% 30.62 in 0 mi NE 10.4 mph - - Fog Heavy Fog
7:00 AM 37.4 °F 30.3 °F 37.4 °F 100% 30.61 in 0.0 mi NE 10.4 mph - N/A Fog Fog
8:00 AM 39.2 °F 33.0 °F 39.2 °F 100% 30.61 in 0.0 mi NE 9.2 mph - N/A Fog Fog
9:00 AM 39.2 °F 33.0 °F 39.2 °F 100% 30.62 in 0.0 mi NE 9.2 mph - N/A Fog Fog
9:16 AM 41.0 °F 35.2 °F 41.0 °F 100% 30.62 in 0.2 mi ENE 9.2 mph - N/A Fog Fog
9:43 AM 41.0 °F 35.8 °F 41.0 °F 100% 30.62 in 1.8 mi NE 8.1 mph - N/A   Mostly Cloudy
10:00 AM 41.0 °F 35.8 °F 41.0 °F 100% 30.61 in 1.8 mi NE 8.1 mph - N/A   Mostly Cloudy
10:20 AM 42.8 °F 37.5 °F 42.8 °F 100% 30.62 in 3.0 mi NE 9.2 mph - N/A   Mostly Cloudy
11:00 AM 44.6 °F 40.2 °F 41.0 °F 87% 30.61 in 6.0 mi NE 8.1 mph - N/A   Mostly Cloudy
12:00 PM 48.2 °F - 37.4 °F 66% 30.58 in 10.0 mi ENE 9.2 mph - N/A   Mostly Cloudy
1:00 PM 48 °F - 36 °F 53% 30.56 in 12 mi NE 10.4 mph - -   Overcast
1:00 PM 48.2 °F - 35.6 °F 62% 30.56 in 12.0 mi NE 9.2 mph - N/A   Mostly Cloudy
2:00 PM 48.2 °F - 35.6 °F 62% 30.55 in 12.0 mi NE 9.2 mph - N/A   Mostly Cloudy
3:00 PM 44.6 °F 37.8 °F 35.6 °F 71% 30.54 in 10.0 mi NE 15.0 mph - N/A   Mostly Cloudy
4:00 PM 42.8 °F 36.6 °F 37.4 °F 81% 30.55 in 9.0 mi NE 11.5 mph - N/A   Mostly Cloudy
5:00 PM 41.0 °F 34.7 °F 37.4 °F 87% 30.54 in 8.0 mi NE 10.4 mph - N/A   Mostly Cloudy
6:00 PM 39.2 °F 31.6 °F 37.4 °F 93% 30.53 in 8.0 mi NE 12.7 mph - N/A   Scattered Clouds
7:00 PM 39 °F - 37 °F 90% 30.54 in 7 mi NE 11.5 mph - -   Clear
7:00 PM 39.2 °F 32.0 °F 37.4 °F 93% 30.53 in 8.0 mi NE 11.5 mph - N/A   Partly Cloudy
8:00 PM 39.2 °F 32.0 °F 37.4 °F 93% 30.53 in 8.0 mi NE 11.5 mph - N/A   Partly Cloudy
9:00 PM 37.4 °F 29.8 °F 35.6 °F 93% 30.51 in 9.0 mi NE 11.5 mph - N/A   Clear
10:00 PM 37.4 °F 29.8 °F 35.6 °F 93% 30.51 in 15.0 mi NE 11.5 mph - N/A   Partly Cloudy
11:00 PM 37.4 °F 29.3 °F 35.6 °F 93% 30.50 in 12.0 mi NE 12.7 mph - N/A   Partly Cloudy